Preview of NWS' New Version of Forecast
This preview is not operational and should not be used for support decisions.

Regional Weather Roundup (RWR)

Issued by National Weather Service (NWS)

                            
000
ASUS44 KMEG 220310
RWRTN 
TENNESSEE HOURLY STATE WEATHER ROUNDUP
NATIONAL WEATHER SERVICE MEMPHIS TN
1000 PM CDT SUN APR 21 2019

TNZ002-004-019-021-049-052-054-088>092-220400-
WEST TENNESSEE
  
CITY           SKY/WX    TMP DP  RH WIND       PRES   REMARKS
MEMPHIS INTL   FAIR      62  48  60 S7        30.10R                  
NWS MEMPHIS      N/A     59 N/A N/A MISG        N/A                   
JACKSON        FAIR      57  51  80 S5        30.11R                  
DYERSBURG      FAIR      61  52  72 CALM      30.11R                  
SOMERVILLE     CLEAR     59  52  77 CALM      30.10R                  
COVINGTON      CLEAR     59  54  82 CALM      30.10R                  
UNION CITY     CLEAR     59  54  82 CALM      30.08R                  
BOLIVAR        CLEAR     55  50  82 CALM      30.11R                  
PARIS          CLEAR     57  45  62 CALM      30.11R                  
HUNTINGDON     CLEAR     57  50  77 CALM      30.11R                  
LEXINGTON        N/A     57  48  72 CALM      30.11R                  
SELMER         CLEAR     64  45  48 S5        30.11R                  
SAVANNAH       PTCLDY    55  54  94 CALM      30.12R                  
$$

TNZ008-025-027-028-033-062-065-066-220400-
NORTH MIDDLE TENNESSEE
  
CITY           SKY/WX    TMP DP  RH WIND       PRES   REMARKS
NASHVILLE      FAIR      58  39  49 SE7       30.15R                  
DICKSON        CLEAR     57  39  51 CALM      30.13R                  
PORTLAND       CLEAR     54  43  66 SE3       30.15R                  
CLARKSVILLE    FAIR      57  39  51 E5        30.13R                  
LEBANON        CLEAR     54  46  76 CALM      30.14R                  
SMYRNA         FAIR      53  45  74 CALM      30.17R                  
MURFREESBORO   CLEAR     54  43  66 SE5       30.14R                  
COOKEVILLE     CLEAR     46  43  87 NE3       30.17R                  
LIVINGSTON     CLEAR     55  32  41 CALM      30.17S                  
GALLATIN       CLEAR     54  45  71 CALM      30.18R                  
CROSSVILLE     FAIR      50  36  58 CALM      30.20R                  
ROCKWOOD       CLEAR     54  34  47 NW5       30.17S                  
$$

TNZ061-075-076-078-094-096-097-220400-
SOUTH MIDDLE TENNESSEE
  
CITY           SKY/WX    TMP DP  RH WIND       PRES   REMARKS
LAWRENCEBURG   CLEAR     54  48  82 CALM      30.14R                  
LEWISBURG      CLEAR     48  45  87 CALM      30.15R                  
FAYETTEVILLE   CLEAR     55  45  67 E5        30.16R                  
TULLAHOMA      CLEAR     50  43  76 CALM      30.16R                  
WINCHESTER     CLEAR     52  45  76 CALM      30.17R                  
MCMINNVILLE    CLEAR     48  43  81 CALM      30.17R                  
COLUMBIA       CLEAR     55  50  82 CALM      30.13R                  
SHELBYVILLE    CLEAR     54  43  66 SE6       30.16R                  
$$

TNZ017-018-042-046-047-220400-
NORTHEAST TENNESSEE
  
CITY           SKY/WX    TMP DP  RH WIND       PRES   REMARKS
TRI CITIES     FAIR      45  42  89 CALM      30.19R                  
ELIZABETHTON     N/A     45  43  93 CALM      30.19R                  
GREENEVILLE    CLEAR     50  43  76 CALM      30.18R                  
$$

TNZ012-013-036-069-073-074-220400-
CENTRAL EAST TENNESSEE
  
CITY           SKY/WX    TMP DP  RH WIND       PRES   REMARKS
KNOXVILLE      FAIR      53  43  68 SW5       30.17R                  
OAK RIDGE      FAIR      53  45  74 CALM      30.19R                  
DOWNTOWN KNOXV CLEAR     50  50 100 CALM      30.18R                  
GATLINBURG     CLEAR     50  46  87 CALM      30.18R                  
MORRISTOWN     CLEAR     52  45  76 CALM      30.17R                  
JACKSBORO      CLEAR     48  41  76 CALM      30.21R                  
$$

TNZ083-085-099-220400-
SOUTHEAST TENNESSEE
  
CITY           SKY/WX    TMP DP  RH WIND       PRES   REMARKS
CHATTANOOGA    FAIR      56  43  61 CALM      30.17R                  
DAYTON         CLEAR     50  45  81 CALM      30.16R                  
$$

SKY/WX REPORTED AS FAIR MEANS FEW OR NO CLOUDS BELOW
12 THOUSAND FEET.